Find Starlink 11510

NORAD ID: 62516 Int'l Des: 2025-004 Owner: SPXS Country: US Constellation: starlink operational
LEOCIRCULAR

实时位置

正在加载3D地球...

关于 Starlink 11510

正在加载描述...

即将过境

Passes for default location (London). Set your location on the main map for personalized predictions.

高度历史

Loading altitude history...

两行轨道根数

1 62516U 25004F 26125.90280586 .00208718 00000-0 15871-2 0 9995
2 62516 42.9989 86.1381 0000604 249.0295 111.0508 15.70877148 76200
Epoch: May 5, 2026 • Age: 11 hours

当前状态

高度 357.6 km
速度 7.70 km/s
星下点 35.51°N, 143.42°W
发射日期 Jan 8, 2025
运行时间 1.3 years
类型 internet

技术详情

分类 Payload
质量 960.00 kg
干质量 910.00 kg
总质量 960.00 kg
长度 0.30 m
直径 4.10 m
跨度 29.00 m
形状 Box + pan
制造商 SPXS
平台类型 Starlink V2MD
阶段状态 In Orbit
所有者/国家 SPXS/US

Most Searched